period_start,C,m1,H,J0,J1,J2,J3,J4,J5,JA,JB,JC,JD,JJ,JK,JN,#
2013-11-07 00:00:55,0.05,1.04,0.00,20.93,22.39,25.24,5.89,31.25,1011.76,2065.00,3119.37,3073.01,3306.99,348.77,324.03,16.42,0000 0000 0000 0000 000000
2013-11-07 00:01:55,0.07,1.04,0.00,20.93,22.40,25.22,5.89,30.71,1011.77,2065.00,3119.15,3073.00,3306.97,349.37,323.90,16.43,0000 0000 0000 0000 000000
2013-11-07 00:02:55,0.02,1.04,0.00,20.93,22.40,25.24,5.98,31.58,1011.75,2065.00,3119.05,3073.00,3306.91,349.62,324.33,16.43,0000 0000 0000 0000 000000
2013-11-07 00:03:55,0.01,1.04,0.00,20.92,22.40,25.25,5.88,30.92,1011.76,2065.00,3119.01,3073.00,3306.53,349.02,323.49,16.44,0000 0000 0000 0000 000000
2013-11-07 00:04:55,0.06,1.04,0.00,20.89,22.40,25.26,5.89,31.13,1011.76,2065.00,3118.95,3072.95,3306.22,350.00,324.74,16.45,0000 0000 0000 0000 000000
2013-11-07 00:05:56,0.06,1.04,0.00,20.87,22.40,25.24,5.85,30.92,1011.77,2065.00,3118.57,3072.90,3306.08,349.11,323.93,16.45,0000 0000 0000 0000 000000
2013-11-07 00:06:56,0.09,1.05,0.00,20.87,22.40,25.26,5.95,31.04,1011.80,2065.00,3118.23,3072.67,3306.03,350.13,325.43,16.46,0000 0000 0000 0000 000000
2013-11-07 00:07:56,0.11,1.05,0.00,20.84,22.40,25.23,5.94,31.21,1011.80,2065.00,3118.08,3072.41,3306.01,350.05,324.29,16.46,0000 0000 0000 0000 000000
2013-11-07 00:08:56,0.09,1.05,0.00,20.86,22.40,25.31,5.95,30.92,1011.84,2065.00,3118.01,3072.18,3306.00,349.65,324.40,16.47,0000 0000 0000 0000 000000
2013-11-07 00:09:56,0.06,1.05,0.00,20.86,22.40,25.26,6.00,30.83,1012.02,2065.00,3117.99,3072.07,3305.93,349.59,324.95,16.47,0000 0000 0000 0000 000000
2013-11-07 00:10:57,0.03,1.05,0.00,20.87,22.40,25.27,6.07,30.96,1012.13,2065.00,3117.91,3072.03,3305.86,350.13,324.59,16.48,0000 0000 0000 0000 000000
2013-11-07 00:11:57,0.01,1.05,0.00,20.88,22.40,25.28,5.95,30.92,1012.09,2065.00,3117.55,3072.01,3305.53,349.83,324.50,16.49,0000 0000 0000 0000 000000
2013-11-07 00:12:57,0.13,1.05,0.00,20.86,22.41,25.30,6.03,31.13,1012.11,2065.00,3117.23,3072.00,3305.23,350.25,324.61,16.49,0000 0000 0000 0000 000000
2013-11-07 00:13:57,0.08,1.05,0.00,20.88,22.41,25.25,6.01,30.75,1012.21,2065.00,3117.08,3072.00,3305.09,349.82,325.13,16.50,0000 0000 0000 0000 000000
2013-11-07 00:14:57,0.03,1.05,0.00,20.90,22.41,25.26,6.06,31.17,1012.22,2065.00,3117.03,3071.99,3305.03,350.09,324.95,16.50,0000 0000 0000 0000 000000
2013-11-07 00:15:58,0.02,1.05,0.00,20.90,22.42,25.28,5.95,30.42,1012.22,2065.00,3117.00,3071.99,3305.01,350.18,324.86,16.51,0000 0000 0000 0000 000000
2013-11-07 00:16:58,0.00,1.05,0.00,20.90,22.41,25.27,5.94,31.46,1012.22,2065.00,3116.90,3071.92,3304.99,350.59,325.42,16.52,0000 0000 0000 0000 000000
2013-11-07 00:17:58,0.03,1.05,0.00,20.90,22.41,25.23,6.01,31.25,1012.22,2065.00,3116.59,3071.69,3304.97,350.42,325.26,16.52,0000 0000 0000 0000 000000
2013-11-07 00:18:59,0.12,1.05,0.00,20.86,22.42,25.27,5.97,30.92,1012.22,2065.00,3116.25,3071.35,3304.91,350.45,325.33,16.53,0000 0000 0000 0000 000000
2013-11-07 00:19:59,0.12,1.05,0.00,20.83,22.41,25.24,6.01,30.83,1012.23,2065.00,3116.09,3071.15,3304.69,350.38,325.31,16.53,0000 0000 0000 0000 000000
2013-11-07 00:20:59,0.10,1.05,0.00,20.81,22.42,25.22,6.11,31.21,1012.23,2065.00,3116.03,3071.06,3304.34,350.56,325.49,16.54,0000 0000 0000 0000 000000
2013-11-07 00:21:59,0.08,1.05,0.00,20.80,22.42,25.23,5.92,31.00,1012.25,2065.00,3116.00,3071.05,3304.17,349.55,324.57,16.54,0000 0000 0000 0000 000000
2013-11-07 00:22:59,0.02,1.05,0.00,20.80,22.42,25.26,5.93,30.42,1012.25,2065.00,3115.93,3071.03,3304.08,349.53,324.56,16.55,0000 0000 0000 0000 000000
2013-11-07 00:23:59,0.03,1.05,0.00,20.81,22.42,25.30,5.95,31.42,1012.24,2065.00,3115.63,3071.01,3304.03,349.24,324.15,16.56,0000 0000 0000 0000 000000
2013-11-07 00:25:00,0.05,1.05,0.00,20.81,22.42,25.28,5.92,30.67,1012.28,2065.00,3115.26,3071.00,3304.00,349.04,323.95,16.56,0000 0000 0000 0000 000000
2013-11-07 00:26:00,0.05,1.05,0.00,20.81,22.42,25.29,5.98,31.54,1012.24,2065.00,3115.09,3071.00,3304.00,350.44,325.50,16.57,0000 0000 0000 0000 000000
2013-11-07 00:27:00,0.02,1.05,0.00,20.83,22.42,25.29,5.92,31.38,1012.24,2065.00,3115.03,3070.99,3303.97,348.92,323.95,16.57,0000 0000 0000 0000 000000
2013-11-07 00:28:00,0.01,1.05,0.00,20.86,22.42,25.27,6.08,31.29,1012.36,2065.00,3114.99,3070.98,3303.88,350.93,325.81,16.58,0000 0000 0000 0000 000000
2013-11-07 00:29:01,0.02,1.05,0.00,20.87,22.42,25.28,6.00,31.25,1012.32,2065.00,3114.95,3070.98,3303.59,350.07,324.47,16.59,0000 0000 0000 0000 000000
2013-11-07 00:30:01,0.04,1.05,0.00,20.86,22.42,25.29,5.96,30.96,1012.36,2065.00,3114.58,3070.83,3303.27,349.89,324.97,16.59,0000 0000 0000 0000 000000
2013-11-07 00:31:01,0.13,1.05,0.00,20.85,22.42,25.27,5.95,30.79,1012.33,2065.00,3114.23,3070.47,3303.10,349.75,324.72,16.60,0000 0000 0000 0000 000000
2013-11-07 00:32:01,0.16,1.05,0.00,20.84,22.42,25.28,5.98,31.25,1012.35,2065.00,3114.08,3070.22,3303.03,350.34,325.29,16.60,0000 0000 0000 0000 000000
2013-11-07 00:33:01,0.09,1.06,0.00,20.82,22.42,25.26,6.17,31.46,1012.40,2065.00,3114.02,3070.08,3302.99,350.82,325.78,16.61,0000 0000 0000 0000 000000
2013-11-07 00:34:02,0.04,1.06,0.00,20.82,22.42,25.26,6.00,31.21,1012.38,2065.00,3114.00,3070.03,3302.97,349.37,324.70,16.61,0000 0000 0000 0000 000000
2013-11-07 00:35:02,0.01,1.06,0.00,20.78,22.42,25.25,5.95,31.42,1012.39,2065.00,3113.87,3070.01,3302.94,350.17,325.22,16.62,0000 0000 0000 0000 000000
2013-11-07 00:36:02,0.02,1.06,0.00,20.79,22.42,25.27,6.06,31.17,1012.39,2065.00,3113.44,3070.00,3302.65,350.63,325.68,16.63,0000 0000 0000 0000 000000
2013-11-07 00:37:03,0.12,1.06,0.00,20.82,22.42,25.28,5.95,30.71,1012.29,2065.00,3113.19,3070.00,3302.38,350.63,325.57,16.63,0000 0000 0000 0000 000000
2013-11-07 00:38:03,0.06,1.06,0.00,20.82,22.42,25.25,5.89,31.25,1012.31,2065.00,3113.08,3069.99,3302.17,349.63,324.65,16.64,0000 0000 0000 0000 000000
2013-11-07 00:39:03,0.05,1.06,0.00,20.82,22.42,25.27,5.90,31.13,1012.31,2065.00,3113.01,3069.97,3302.07,350.10,325.08,16.64,0000 0000 0000 0000 000000
2013-11-07 00:40:04,0.03,1.06,0.00,20.86,22.42,25.28,5.98,31.29,1012.27,2065.00,3113.00,3069.94,3302.03,350.06,324.91,16.65,0000 0000 0000 0000 000000
2013-11-07 00:41:04,0.01,1.06,0.00,20.85,22.42,25.26,5.96,31.46,1012.31,2065.00,3112.92,3069.79,3302.00,350.38,325.30,16.66,0000 0000 0000 0000 000000
2013-11-07 00:42:04,0.06,1.06,0.00,20.85,22.42,25.26,5.91,31.46,1012.30,2065.00,3112.48,3069.39,3301.96,349.95,324.97,16.66,0000 0000 0000 0000 000000
2013-11-07 00:43:05,0.16,1.06,0.00,20.86,22.42,25.28,5.95,31.67,1012.32,2065.00,3112.18,3069.17,3301.88,349.78,325.09,16.67,0000 0000 0000 0000 000000
2013-11-07 00:44:05,0.10,1.06,0.00,20.86,22.42,25.32,5.97,31.67,1012.31,2065.00,3112.06,3069.06,3301.53,349.92,324.61,16.67,0000 0000 0000 0000 000000
2013-11-07 00:45:05,0.08,1.06,0.00,20.86,22.42,25.28,6.12,31.58,1012.29,2064.99,3112.01,3069.02,3301.23,350.68,325.57,16.68,0000 0000 0000 0000 000000
2013-11-07 00:46:05,0.04,1.06,0.00,20.83,22.42,25.31,5.99,31.17,1012.35,2064.98,3111.94,3069.00,3301.08,349.95,324.84,16.68,0000 0000 0000 0000 000000
2013-11-07 00:47:05,0.02,1.06,0.00,20.81,22.42,25.28,5.82,31.00,1012.41,2064.99,3111.73,3068.99,3301.03,349.30,324.38,16.69,0000 0000 0000 0000 000000
2013-11-07 00:48:06,0.04,1.06,0.00,20.81,22.42,25.25,5.87,31.08,1012.55,2064.96,3111.34,3068.95,3301.01,349.61,324.71,16.70,0000 0000 0000 0000 000000
2013-11-07 00:49:06,0.04,1.06,0.00,20.81,22.42,25.28,6.03,31.21,1012.58,2064.97,3111.12,3068.90,3301.00,349.84,324.66,16.70,0000 0000 0000 0000 000000
2013-11-07 00:50:06,0.07,1.06,0.00,20.80,22.42,25.27,6.01,30.92,1012.64,2064.98,3111.04,3068.61,3300.92,351.15,326.42,16.71,0000 0000 0000 0000 000000
2013-11-07 00:51:06,0.10,1.06,0.00,20.80,22.42,25.24,5.87,30.50,1012.66,2064.99,3111.00,3068.31,3300.69,349.46,324.85,16.71,0000 0000 0000 0000 000000
2013-11-07 00:52:06,0.11,1.06,0.00,20.82,22.42,25.28,6.05,30.88,1012.68,2064.99,3110.98,3068.17,3300.40,350.33,325.35,16.72,0000 0000 0000 0000 000000
2013-11-07 00:53:07,0.07,1.06,0.00,20.84,22.42,25.28,6.10,31.46,1012.71,2064.98,3110.88,3068.09,3300.18,349.59,324.48,16.73,0000 0000 0000 0000 000000
2013-11-07 00:54:07,0.06,1.06,0.00,20.87,22.42,25.29,5.94,31.25,1012.71,2064.99,3110.49,3068.04,3300.07,349.52,325.06,16.73,0000 0000 0000 0000 000000
2013-11-07 00:55:07,0.07,1.06,0.00,20.85,22.42,25.27,6.05,31.17,1012.71,2064.99,3110.21,3068.01,3300.03,350.20,325.47,16.74,0000 0000 0000 0000 000000
2013-11-07 00:56:07,0.04,1.06,0.00,20.86,22.42,25.26,6.10,31.46,1012.72,2064.98,3110.08,3068.00,3300.00,350.73,325.49,16.74,0000 0000 0000 0000 000000
2013-11-07 00:57:07,0.01,1.06,0.00,20.88,22.42,25.28,5.92,30.92,1012.71,2064.99,3110.03,3068.00,3300.00,350.21,325.30,16.75,0000 0000 0000 0000 000000
2013-11-07 00:58:08,0.01,1.06,0.00,20.88,22.42,25.31,5.96,31.04,1012.71,2064.99,3109.99,3068.00,3300.00,349.01,324.44,16.76,0000 0000 0000 0000 000000
2013-11-07 00:59:08,0.00,1.06,0.00,20.86,22.42,25.25,6.06,31.21,1012.71,2064.99,3109.89,3067.99,3299.96,349.64,324.79,16.76,0000 0000 0000 0000 000000
2013-11-07 01:00:08,0.03,1.06,0.00,20.83,22.42,25.25,5.95,31.00,1012.72,2064.99,3109.54,3067.99,3299.77,349.64,324.77,16.77,0000 0000 0000 0000 000000
2013-11-07 01:01:08,0.08,1.06,0.00,20.80,22.42,25.26,5.98,30.79,1012.72,2064.99,3109.21,3067.93,3299.47,349.58,324.75,16.77,0000 0000 0000 0000 000000
2013-11-07 01:02:09,0.09,1.07,0.00,20.79,22.42,25.25,5.99,30.96,1012.72,2064.98,3109.08,3067.69,3299.19,350.06,325.21,16.78,0000 0000 0000 0000 000000
2013-11-07 01:03:09,0.11,1.07,0.00,20.81,22.42,25.29,5.97,31.42,1012.72,2064.99,3109.02,3067.36,3299.08,349.85,324.99,16.78,0000 0000 0000 0000 000000
2013-11-07 01:04:09,0.10,1.07,0.00,20.84,22.42,25.31,5.93,31.13,1012.72,2064.99,3108.99,3067.14,3299.03,350.36,325.43,16.79,0000 0000 0000 0000 000000
2013-11-07 01:05:09,0.07,1.07,0.00,20.86,22.42,25.28,5.98,30.92,1012.72,2064.99,3108.83,3067.05,3299.01,349.98,325.06,16.80,0000 0000 0000 0000 000000
2013-11-07 01:06:09,0.04,1.07,0.00,20.86,22.42,25.28,6.07,30.96,1012.71,2064.99,3108.48,3067.03,3299.00,349.92,324.87,16.80,0000 0000 0000 0000 000000
2013-11-07 01:07:10,0.05,1.07,0.00,20.87,22.42,25.27,5.82,31.17,1012.71,2064.98,3108.20,3067.00,3298.90,349.37,324.36,16.81,0000 0000 0000 0000 000000
2013-11-07 01:08:10,0.05,1.07,0.00,20.89,22.42,25.24,5.91,30.96,1012.72,2064.97,3108.07,3067.00,3298.57,349.54,324.61,16.81,0000 0000 0000 0000 000000
2013-11-07 01:09:10,0.07,1.07,0.00,20.89,22.42,25.28,5.97,31.13,1012.71,2064.99,3108.02,3067.00,3298.29,349.38,324.85,16.82,0000 0000 0000 0000 000000
2013-11-07 01:10:10,0.05,1.07,0.00,20.90,22.42,25.26,6.09,31.29,1012.71,2064.98,3108.00,3066.97,3298.14,350.41,325.41,16.83,0000 0000 0000 0000 000000
2013-11-07 01:11:11,0.03,1.07,0.00,20.91,22.42,25.25,5.98,31.25,1012.71,2064.97,3107.85,3066.94,3298.05,350.05,324.38,16.83,0000 0000 0000 0000 000000
2013-11-07 01:12:11,0.02,1.07,0.00,20.90,22.42,25.24,6.11,31.25,1012.72,2064.97,3107.66,3066.85,3298.02,350.25,325.25,16.84,0000 0000 0000 0000 000000
2013-11-07 01:13:11,0.05,1.07,0.00,20.91,22.42,25.25,5.99,31.38,1012.73,2064.98,3107.33,3066.77,3298.00,350.02,325.19,16.84,0000 0000 0000 0000 000000
2013-11-07 01:14:11,0.08,1.07,0.00,20.90,22.42,25.26,6.08,31.42,1012.74,2064.98,3107.15,3066.50,3298.00,351.08,325.69,16.85,0000 0000 0000 0000 000000
2013-11-07 01:15:12,0.09,1.07,0.00,20.89,22.42,25.25,5.87,31.17,1012.74,2064.99,3107.05,3066.26,3297.97,349.40,324.88,16.85,0000 0000 0000 0000 000000
2013-11-07 01:16:12,0.07,1.07,0.00,20.87,22.42,25.25,5.97,30.75,1012.76,2064.99,3107.02,3066.11,3297.93,349.85,324.57,16.86,0000 0000 0000 0000 000000
2013-11-07 01:17:12,0.05,1.07,0.00,20.82,22.42,25.27,5.98,31.13,1012.73,2064.99,3106.98,3066.04,3297.65,349.46,324.29,16.87,0000 0000 0000 0000 000000
2013-11-07 01:18:13,0.05,1.07,0.00,20.82,22.42,25.26,5.90,31.46,1012.73,2064.98,3106.69,3066.01,3297.30,350.62,325.96,16.87,0000 0000 0000 0000 000000
2013-11-07 01:19:13,0.07,1.07,0.00,20.82,22.42,25.26,5.93,30.79,1012.71,2064.99,3106.37,3066.00,3297.13,349.87,324.47,16.88,0000 0000 0000 0000 000000
2013-11-07 01:20:13,0.08,1.07,0.00,20.83,22.42,25.27,5.92,30.58,1012.73,2064.97,3106.15,3066.00,3297.04,349.86,324.98,16.88,0000 0000 0000 0000 000000
2013-11-07 01:21:13,0.04,1.07,0.00,20.84,22.42,25.26,6.03,30.92,1012.75,2064.97,3106.05,3065.98,3297.01,349.35,324.50,16.89,0000 0000 0000 0000 000000
2013-11-07 01:22:13,0.01,1.07,0.00,20.84,22.42,25.24,6.03,30.58,1012.75,2064.96,3106.01,3065.97,3296.99,350.80,325.84,16.90,0000 0000 0000 0000 000000
2013-11-07 01:23:14,0.01,1.07,0.00,20.89,22.42,25.28,5.94,30.79,1012.80,2064.96,3105.92,3065.81,3296.97,350.09,325.15,16.90,0000 0000 0000 0000 000000
2013-11-07 01:24:14,0.06,1.07,0.00,20.90,22.42,25.27,6.01,31.08,1012.79,2064.97,3105.64,3065.56,3296.87,349.38,324.49,16.91,0000 0000 0000 0000 000000
2013-11-07 01:25:14,0.14,1.07,0.00,20.88,22.42,25.29,5.96,31.00,1012.83,2064.99,3105.31,3065.33,3296.52,349.55,324.68,16.91,0000 0000 0000 0000 000000
2013-11-07 01:26:14,0.16,1.08,0.00,20.89,22.42,25.31,5.99,31.04,1012.80,2064.98,3105.12,3065.19,3296.22,350.64,325.77,16.92,0000 0000 0000 0000 000000
2013-11-07 01:27:15,0.09,1.08,0.00,20.92,22.42,25.33,5.98,30.83,1012.84,2064.98,3105.04,3065.07,3296.11,349.74,324.86,16.93,0000 0000 0000 0000 000000
2013-11-07 01:28:15,0.04,1.08,0.00,20.91,22.42,25.30,5.94,30.75,1012.81,2064.98,3105.01,3065.04,3296.05,349.47,325.15,16.93,0000 0000 0000 0000 000000
2013-11-07 01:29:15,0.02,1.08,0.00,20.90,22.42,25.31,6.11,31.25,1012.85,2064.98,3105.00,3065.02,3296.02,349.85,324.99,16.94,0000 0000 0000 0000 000000
2013-11-07 01:30:15,0.01,1.08,0.00,20.88,22.42,25.28,6.03,31.08,1013.00,2064.97,3104.86,3065.00,3296.00,350.62,325.51,16.94,0000 0000 0000 0000 000000
2013-11-07 01:31:16,0.02,1.08,0.00,20.88,22.42,25.27,6.10,31.38,1012.99,2064.98,3104.50,3065.00,3296.00,350.27,325.30,16.95,0000 0000 0000 0000 000000
2013-11-07 01:32:16,0.05,1.08,0.00,20.86,22.42,25.28,5.96,31.17,1013.10,2064.99,3104.18,3065.00,3295.98,349.60,324.43,16.95,0000 0000 0000 0000 000000
2013-11-07 01:33:16,0.05,1.08,0.00,20.84,22.42,25.30,5.98,31.33,1013.13,2064.97,3104.07,3064.99,3295.79,349.95,325.64,16.96,0000 0000 0000 0000 000000
2013-11-07 01:34:16,0.04,1.08,0.00,20.83,22.42,25.27,6.05,31.21,1013.15,2064.97,3104.02,3064.91,3295.56,349.91,325.04,16.97,0000 0000 0000 0000 000000
2013-11-07 01:35:17,0.07,1.08,0.00,20.85,22.42,25.25,6.13,31.33,1013.18,2064.97,3103.90,3064.54,3295.24,349.75,325.34,16.97,0000 0000 0000 0000 000000
2013-11-07 01:36:17,0.15,1.08,0.00,20.86,22.42,25.27,5.99,30.63,1013.18,2064.97,3103.57,3064.22,3295.08,350.18,325.18,16.98,0000 0000 0000 0000 000000
2013-11-07 01:37:17,0.13,1.08,0.00,20.86,22.42,25.29,6.03,30.71,1013.19,2064.93,3103.25,3064.09,3295.03,350.37,324.99,16.98,0000 0000 0000 0000 000000
2013-11-07 01:38:17,0.05,1.08,0.00,20.89,22.42,25.31,5.91,31.00,1013.20,2064.96,3103.11,3064.04,3294.98,349.28,324.99,16.99,0000 0000 0000 0000 000000
2013-11-07 01:39:18,0.03,1.08,0.00,20.91,22.42,25.33,5.98,30.63,1013.19,2064.96,3103.04,3064.01,3294.97,349.27,324.49,17.00,0000 0000 0000 0000 000000
2013-11-07 01:40:18,0.02,1.08,0.00,20.90,22.42,25.30,6.02,31.13,1013.20,2064.96,3103.00,3064.00,3294.79,349.55,324.67,17.00,0000 0000 0000 0000 000000
2013-11-07 01:41:18,0.02,1.08,0.00,20.90,22.42,25.30,6.11,30.79,1013.20,2064.96,3102.97,3064.00,3294.54,350.84,325.96,17.01,0000 0000 0000 0000 000000
2013-11-07 01:42:18,0.05,1.08,0.00,20.91,22.42,25.30,6.12,31.38,1013.20,2064.95,3102.64,3064.00,3294.27,350.42,325.56,17.01,0000 0000 0000 0000 000000
2013-11-07 01:43:18,0.06,1.08,0.00,20.91,22.42,25.25,6.01,31.29,1013.20,2064.94,3102.29,3063.99,3294.11,350.51,325.64,17.02,0000 0000 0000 0000 000000
2013-11-07 01:44:18,0.06,1.08,0.00,20.93,22.42,25.27,5.93,30.75,1013.20,2064.92,3102.13,3063.97,3294.05,349.18,323.82,17.02,0000 0000 0000 0000 000000
2013-11-07 01:45:19,0.04,1.08,0.00,20.93,22.42,25.23,6.17,31.21,1013.17,2064.92,3102.05,3063.91,3294.01,349.63,324.80,17.03,0000 0000 0000 0000 000000
2013-11-07 01:46:19,0.01,1.08,0.00,20.95,22.42,25.27,6.07,31.33,1013.18,2064.92,3102.01,3063.69,3294.00,349.97,324.50,17.04,0000 0000 0000 0000 000000
2013-11-07 01:47:19,0.06,1.08,0.00,20.94,22.42,25.25,5.94,31.21,1013.18,2064.90,3101.98,3063.37,3294.00,349.80,324.95,17.04,0000 0000 0000 0000 000000
2013-11-07 01:48:20,0.09,1.08,0.00,20.92,22.42,25.26,6.09,31.29,1013.18,2064.88,3101.65,3063.17,3293.97,350.90,325.98,17.05,0000 0000 0000 0000 000000
2013-11-07 01:49:20,0.08,1.08,0.00,20.89,22.42,25.25,6.10,31.25,1013.17,2064.91,3101.28,3063.06,3293.70,350.86,326.36,17.05,0000 0000 0000 0000 000000
2013-11-07 01:50:20,0.12,1.08,0.00,20.86,22.42,25.29,6.03,30.96,1013.18,2064.92,3101.11,3063.03,3293.34,350.17,325.37,17.06,0000 0000 0000 0000 000000
2013-11-07 01:51:20,0.08,1.08,0.00,20.83,22.42,25.25,5.92,30.75,1013.15,2064.96,3101.04,3063.01,3293.16,349.08,324.33,17.07,0000 0000 0000 0000 000000
2013-11-07 01:52:21,0.06,1.08,0.00,20.85,22.43,25.29,6.12,30.83,1013.12,2064.96,3101.01,3063.00,3293.07,350.36,325.73,17.07,0000 0000 0000 0000 000000
2013-11-07 01:53:21,0.02,1.08,0.00,20.84,22.43,25.26,5.98,31.33,1013.18,2064.94,3100.94,3062.99,3293.02,349.93,325.11,17.08,0000 0000 0000 0000 000000
2013-11-07 01:54:21,0.01,1.08,0.00,20.84,22.43,25.27,6.04,31.29,1013.05,2064.94,3100.59,3062.97,3293.00,350.32,325.21,17.08,0000 0000 0000 0000 000000
2013-11-07 01:55:22,0.04,1.09,0.00,20.86,22.43,25.26,5.99,31.00,1012.88,2064.93,3100.23,3062.90,3292.98,350.13,325.13,17.09,0000 0000 0000 0000 000000
2013-11-07 01:56:22,0.07,1.09,0.00,20.87,22.43,25.27,6.02,31.13,1012.88,2064.93,3100.08,3062.70,3292.86,349.34,324.73,17.09,0000 0000 0000 0000 000000
2013-11-07 01:57:22,0.07,1.09,0.00,20.88,22.43,25.27,6.14,31.17,1012.89,2064.88,3100.03,3062.31,3292.57,350.76,325.93,17.10,0000 0000 0000 0000 000000
2013-11-07 01:58:23,0.11,1.09,0.00,20.90,22.44,25.30,5.99,31.33,1012.78,2064.92,3100.00,3062.15,3292.32,350.21,325.08,17.11,0000 0000 0000 0000 000000
2013-11-07 01:59:23,0.10,1.09,0.00,20.89,22.44,25.33,6.06,31.21,1012.79,2064.95,3099.95,3062.08,3292.16,349.83,324.69,17.11,0000 0000 0000 0000 000000
2013-11-07 02:00:23,0.06,1.09,0.00,20.88,22.44,25.28,6.00,31.08,1012.85,2064.97,3099.80,3062.04,3292.05,350.46,325.52,17.12,0000 0000 0000 0000 000000
2013-11-07 02:01:23,0.07,1.09,0.00,20.91,22.44,25.28,6.15,31.46,1012.78,2064.96,3099.38,3062.01,3292.02,351.06,326.03,17.12,0000 0000 0000 0000 000000
2013-11-07 02:02:23,0.04,1.09,0.00,20.93,22.44,25.30,6.17,31.88,1012.82,2064.93,3099.14,3062.00,3292.00,350.72,325.69,17.13,0000 0000 0000 0000 000000
2013-11-07 02:03:24,0.01,1.09,0.00,20.91,22.44,25.36,5.98,31.96,1012.85,2064.92,3099.05,3062.00,3291.99,349.75,324.83,17.14,0000 0000 0000 0000 000000
2013-11-07 02:04:24,0.01,1.09,0.00,20.89,22.44,25.27,5.97,31.42,1012.91,2064.90,3099.01,3062.00,3291.93,349.88,324.98,17.14,0000 0000 0000 0000 000000
2013-11-07 02:05:24,0.00,1.09,0.00,20.87,22.44,25.26,6.07,31.50,1012.87,2064.84,3098.81,3061.96,3291.63,350.47,325.55,17.15,0000 0000 0000 0000 000000
2013-11-07 02:06:25,0.03,1.09,0.00,20.86,22.44,25.26,5.98,31.75,1012.84,2064.81,3098.47,3061.91,3291.35,349.93,325.32,17.15,0000 0000 0000 0000 000000
2013-11-07 02:07:25,0.12,1.09,0.00,20.84,22.44,25.30,6.03,31.46,1012.83,2064.88,3098.21,3061.75,3291.16,350.00,325.13,17.16,0000 0000 0000 0000 000000
2013-11-07 02:08:25,0.12,1.09,0.00,20.83,22.44,25.29,5.93,31.13,1012.83,2064.86,3098.07,3061.54,3291.06,350.44,325.55,17.17,0000 0000 0000 0000 000000
2013-11-07 02:09:25,0.07,1.09,0.00,20.85,22.44,25.25,5.75,31.00,1012.76,2064.86,3098.03,3061.26,3291.02,348.76,323.94,17.17,0000 0000 0000 0000 000000
2013-11-07 02:10:26,0.05,1.09,0.00,20.87,22.44,25.27,5.84,31.54,1012.82,2064.84,3098.00,3061.12,3291.00,348.82,324.00,17.18,0000 0000 0000 0000 000000
2013-11-07 02:11:26,0.05,1.09,0.00,20.88,22.44,25.32,5.92,31.25,1012.88,2064.89,3097.81,3061.06,3291.00,349.50,324.64,17.18,0000 0000 0000 0000 000000
2013-11-07 02:12:26,0.04,1.09,0.00,20.87,22.44,25.29,5.99,31.21,1013.05,2064.84,3097.38,3061.02,3290.98,349.06,324.20,17.19,0000 0000 0000 0000 000000
2013-11-07 02:13:26,0.07,1.09,0.00,20.87,22.44,25.31,6.05,31.46,1012.96,2064.87,3097.14,3061.00,3290.87,350.40,324.87,17.19,0000 0000 0000 0000 000000
2013-11-07 02:14:27,0.06,1.09,0.00,20.86,22.44,25.27,6.06,31.71,1012.96,2064.82,3097.05,3060.99,3290.50,349.59,324.78,17.20,0000 0000 0000 0000 000000
2013-11-07 02:15:27,0.03,1.09,0.00,20.89,22.44,25.31,5.92,31.38,1013.04,2064.82,3097.01,3060.98,3290.22,350.38,325.50,17.21,0000 0000 0000 0000 000000
2013-11-07 02:16:27,0.03,1.09,0.00,20.90,22.44,25.31,5.97,32.13,1012.95,2064.78,3096.83,3060.93,3290.09,349.96,324.15,17.21,0000 0000 0000 0000 000000
2013-11-07 02:17:27,0.01,1.09,0.00,20.90,22.44,25.31,5.98,31.29,1013.06,2064.70,3096.51,3060.81,3290.03,349.88,325.33,17.22,0000 0000 0000 0000 000000
2013-11-07 02:18:27,0.05,1.09,0.00,20.91,22.44,25.32,6.07,31.63,1013.00,2064.69,3096.22,3060.52,3289.99,350.50,325.21,17.22,0000 0000 0000 0000 000000
2013-11-07 02:19:28,0.06,1.09,0.00,20.92,22.44,25.31,5.94,31.79,1012.95,2064.57,3096.09,3060.26,3289.99,350.43,325.49,17.23,0000 0000 0000 0000 000000
2013-11-07 02:20:28,-0.01,1.09,0.00,20.92,22.44,25.28,6.08,31.92,1013.03,2064.52,3096.02,3060.12,3289.92,350.06,325.16,17.24,0000 0000 0000 0000 000000
2013-11-07 02:21:28,0.07,1.09,0.00,20.89,22.44,25.32,6.06,32.08,1013.09,2064.69,3096.00,3060.07,3289.71,350.84,325.94,17.24,0000 0000 0000 0000 000000
2013-11-07 02:22:28,0.14,1.10,0.00,20.84,22.44,25.31,5.97,31.50,1013.03,2064.72,3095.85,3060.02,3289.31,349.75,324.97,17.25,0000 0000 0000 0000 000000
2013-11-07 02:23:28,0.13,1.10,0.00,20.83,22.44,25.31,6.10,31.79,1013.09,2064.81,3095.54,3060.00,3289.14,350.59,325.78,17.25,0000 0000 0000 0000 000000
2013-11-07 02:24:29,0.13,1.10,0.00,20.83,22.44,25.35,5.97,31.50,1013.14,2064.81,3095.23,3060.00,3289.06,350.42,325.63,17.26,0000 0000 0000 0000 000000
2013-11-07 02:25:29,0.02,1.10,0.00,20.83,22.44,25.30,6.02,31.79,1013.11,2064.72,3095.08,3059.99,3289.02,350.43,325.63,17.26,0000 0000 0000 0000 000000
2013-11-07 02:26:29,0.00,1.10,0.00,20.82,22.44,25.29,6.06,30.83,1013.17,2064.72,3095.01,3059.96,3289.00,351.05,326.24,17.27,0000 0000 0000 0000 000000
2013-11-07 02:27:29,0.01,1.10,0.00,20.81,22.44,25.29,5.92,31.13,1013.19,2064.76,3094.96,3059.97,3288.99,349.72,325.02,17.28,0000 0000 0000 0000 000000
2013-11-07 02:28:30,0.04,1.10,0.00,20.83,22.44,25.32,5.89,31.42,1013.17,2064.78,3094.68,3059.83,3288.95,349.79,324.98,17.28,0000 0000 0000 0000 000000
2013-11-07 02:29:30,0.13,1.10,0.00,20.83,22.44,25.31,5.92,31.63,1013.14,2064.82,3094.29,3059.55,3288.82,349.37,324.65,17.29,0000 0000 0000 0000 000000
2013-11-07 02:30:30,0.15,1.10,0.00,20.84,22.44,25.28,5.81,31.75,1013.15,2064.88,3094.13,3059.35,3288.52,348.60,323.94,17.29,0000 0000 0000 0000 000000
2013-11-07 02:31:30,0.16,1.10,0.00,20.84,22.44,25.29,5.93,31.46,1013.17,2064.92,3094.05,3059.18,3288.26,348.18,324.17,17.30,0000 0000 0000 0000 000000
2013-11-07 02:32:31,0.09,1.10,0.00,20.85,22.44,25.32,6.02,31.88,1013.17,2064.79,3093.99,3059.07,3288.11,350.29,325.50,17.31,0000 0000 0000 0000 000000
2013-11-07 02:33:31,-0.03,1.10,0.00,20.87,22.44,25.32,6.03,31.75,1013.19,2064.65,3093.68,3059.02,3288.04,350.64,325.81,17.31,0000 0000 0000 0000 000000
2013-11-07 02:34:31,0.01,1.10,0.00,20.89,22.44,25.33,5.98,31.58,1013.18,2064.77,3093.37,3059.00,3288.01,350.36,325.53,17.32,0000 0000 0000 0000 000000
2013-11-07 02:35:31,0.11,1.10,0.00,20.89,22.44,25.33,6.07,32.25,1013.19,2064.75,3093.18,3059.00,3287.98,350.16,326.00,17.32,0000 0000 0000 0000 000000
2013-11-07 02:36:32,0.02,1.10,0.00,20.86,22.44,25.34,5.96,31.58,1013.20,2064.71,3093.07,3058.99,3287.98,350.26,325.47,17.33,0000 0000 0000 0000 000000